Location: Mexico
(19.4000°N, 99.1500°W)
Time: 09:43:02
(UTC-06:00)

ISS - Pass Details

Date: 19 January 2018
Orbit: 402 x 407 km, 51.6° (Epoch: 23 January)

Event Time Altitude Azimuth Distance (km) Brightness Sun altitude
Exits shadow 05:56:33 29° 356° (N) 767 -2.6 -18.0°
Maximum altitude 05:57:46 45° 50° (NE) 559 -2.9 -17.8°
Drops below altitude 10° 06:00:55 10° 124° (SE) 1,454 0.1 -17.0°
Sets 06:03:02 0° 131° (SE) 2,312 1.2 -16.6°
